Location: Chillicothe
(39.7950°N, 93.5520°W)
Time: 12:34:41
(UTC-06:00)

BEESAT - Pass Details

Date: 18 November 2019
Orbit: 700 x 709 km, 98.6° (Epoch: 10 December)

Event Time Altitude Azimuth Distance (km) Brightness Sun altitude
Rises 18:50:38 0° 358° (N) 3,096 ? -21.9°
Reaches altitude 10° 18:53:20 10° 343° (NNW) 2,174 ? -22.4°
Maximum altitude 18:56:53 21° 295° (WNW) 1,537 ? -23.1°
Drops below altitude 10° 19:00:26 10° 246° (WSW) 2,167 ? -23.7°
Sets 19:03:08 0° 231° (SW) 3,082 ? -24.3°
